| time (UTC) | temp C | wind direction | speed KPH | gust KPH | rain 1hr cm | rain 24hr cm | rain mn cm | humidity % | barometer mb |
| 20260510185128 | 8 | 300 | 0.0 | 0.0 | 0.00 | 0.15 | 0.00 | 99 | 1032.0 |
| 20260510184112 | 8 | 299 | 0.0 | 0.0 | 0.00 | 0.15 | 0.00 | 99 | 1031.9 |
| 20260510183107 | 8 | 299 | 0.0 | 0.0 | 0.00 | 0.15 | 0.00 | 99 | 1031.9 |
| 20260510182115 | 8 | 299 | 0.0 | 0.0 | 0.00 | 0.15 | 0.00 | 99 | 1031.9 |
| 20260510180016 | 8 | 299 | 0.0 | 0.0 | 0.00 | 0.15 | 0.00 | 99 | 1031.8 |
| 20260510174955 | 8 | 299 | 0.0 | 0.0 | 0.00 | 0.15 | 0.00 | 99 | 1031.7 |
| 20260510174016 | 8 | 299 | 0.0 | 0.0 | 0.00 | 0.15 | 0.00 | 99 | 1031.7 |
| 20260510173012 | 8 | 306 | 0.0 | 0.0 | 0.00 | 0.15 | 0.00 | 99 | 1031.8 |
| 20260510172022 | 8 | 297 | 0.0 | 0.0 | 0.00 | 0.15 | 0.00 | 99 | 1031.8 |
| 20260510165958 | 8 | 300 | 0.0 | 0.0 | 0.00 | 0.18 | 0.00 | 99 | 1031.9 |
| 20260510165021 | 8 | 301 | 0.0 | 0.0 | 0.00 | 0.18 | 0.00 | 99 | 1031.9 |
| 20260510164043 | 8 | 301 | 0.0 | 0.0 | 0.00 | 0.18 | 0.00 | 99 | 1031.9 |
| 20260510163012 | 8 | 294 | 0.0 | 0.0 | 0.00 | 0.18 | 0.00 | 99 | 1031.9 |
| 20260510162031 | 8 | 298 | 0.0 | 0.0 | 0.00 | 0.18 | 0.00 | 99 | 1031.8 |
| 20260510161027 | 8 | 298 | 0.0 | 0.0 | 0.00 | 0.18 | 0.00 | 99 | 1031.9 |
| 20260510160046 | 8 | 298 | 0.0 | 0.0 | 0.00 | 0.18 | 0.00 | 99 | 1032.0 |
| 20260510155020 | 8 | 298 | 0.0 | 0.0 | 0.00 | 0.18 | 0.00 | 99 | 1032.0 |
| 20260510154033 | 8 | 281 | 0.0 | 0.0 | 0.00 | 0.18 | 0.00 | 99 | 1032.0 |
| 20260510153007 | 8 | 282 | 0.0 | 0.0 | 0.00 | 0.18 | 0.00 | 99 | 1032.0 |
| 20260510151951 | 8 | 281 | 0.0 | 0.0 | 0.00 | 0.18 | 0.00 | 99 | 1032.0 |
| 20260510151002 | 8 | 281 | 0.0 | 0.0 | 0.00 | 0.18 | 0.00 | 99 | 1032.0 |
| 20260510150004 | 8 | 275 | 0.0 | 0.0 | 0.00 | 0.18 | 0.00 | 99 | 1032.0 |
| 20260510145013 | 8 | 275 | 0.0 | 0.0 | 0.00 | 0.18 | 0.00 | 99 | 1032.0 |
| 20260510144008 | 8 | 271 | 0.0 | 0.0 | 0.00 | 0.18 | 0.00 | 99 | 1032.0 |
| 20260510143020 | 8 | 270 | 0.0 | 0.0 | 0.00 | 0.18 | 0.00 | 99 | 1031.9 |
| 20260510142030 | 9 | 270 | 0.0 | 0.0 | 0.00 | 0.18 | 0.00 | 99 | 1031.9 |
| 20260510141042 | 9 | 270 | 0.0 | 0.0 | 0.00 | 0.18 | 0.00 | 99 | 1032.0 |
| 20260510140011 | 9 | 270 | 0.0 | 0.0 | 0.00 | 0.18 | 0.00 | 99 | 1032.0 |
| 20260510135024 | 9 | 248 | 0.0 | 0.0 | 0.00 | 0.18 | 0.18 | 99 | 1032.0 |
| 20260510133002 | 10 | 91 | 0.0 | 0.0 | 0.00 | 0.18 | 0.18 | 99 | 1032.1 |
| 20260510130955 | 10 | 91 | 0.0 | 0.0 | 0.00 | 0.18 | 0.18 | 99 | 1032.0 |
| 20260510125924 | 10 | 91 | 0.0 | 0.0 | 0.00 | 0.18 | 0.18 | 99 | 1032.0 |
| 20260510124909 | 10 | 91 | 0.0 | 0.0 | 0.00 | 0.18 | 0.18 | 99 | 1032.2 |
| 20260510123846 | 10 | 91 | 0.0 | 0.0 | 0.00 | 0.18 | 0.18 | 99 | 1032.3 |
| 20260510122825 | 10 | 91 | 0.0 | 0.0 | 0.00 | 0.18 | 0.18 | 99 | 1032.3 |
| 20260510121823 | 10 | 91 | 0.0 | 0.0 | 0.00 | 0.18 | 0.18 | 99 | 1032.3 |
| 20260510120756 | 10 | 91 | 0.0 | 0.0 | 0.00 | 0.18 | 0.18 | 99 | 1032.4 |
| 20260510115731 | 10 | 91 | 0.0 | 0.0 | 0.00 | 0.18 | 0.18 | 99 | 1032.3 |
| 20260510114719 | 10 | 91 | 0.0 | 0.0 | 0.00 | 0.18 | 0.18 | 99 | 1032.2 |
| 20260510112710 | 10 | 91 | 0.0 | 0.0 | 0.00 | 0.18 | 0.18 | 99 | 1032.1 |
| 20260510111645 | 10 | 91 | 0.0 | 0.0 | 0.00 | 0.18 | 0.18 | 99 | 1032.0 |
| 20260510105640 | 10 | 91 | 0.0 | 0.0 | 0.00 | 0.18 | 0.18 | 99 | 1031.9 |
| 20260510104651 | 10 | 91 | 0.0 | 0.0 | 0.00 | 0.18 | 0.18 | 99 | 1031.9 |
| 20260510103621 | 10 | 91 | 0.0 | 0.0 | 0.00 | 0.18 | 0.18 | 99 | 1031.9 |
| 20260510102616 | 10 | 91 | 0.0 | 0.0 | 0.00 | 0.18 | 0.18 | 99 | 1031.9 |
| 20260510101604 | 10 | 91 | 0.0 | 0.0 | 0.00 | 0.18 | 0.18 | 99 | 1031.9 |
| 20260510100612 | 10 | 91 | 0.0 | 0.0 | 0.00 | 0.18 | 0.18 | 99 | 1031.8 |
| 20260510095551 | 10 | 91 | 0.0 | 0.0 | 0.00 | 0.18 | 0.18 | 99 | 1031.8 |
| 20260510093509 | 10 | 91 | 0.0 | 0.0 | 0.00 | 0.15 | 0.15 | 99 | 1031.8 |
| 20260510091449 | 10 | 91 | 0.0 | 0.0 | 0.00 | 0.15 | 0.15 | 99 | 1031.6 |
| 20260510085520 | 10 | 96 | 0.0 | 0.0 | 0.00 | 0.15 | 0.15 | 99 | 1031.4 |
| 20260510084508 | 10 | 95 | 0.0 | 0.0 | 0.00 | 0.15 | 0.15 | 99 | 1031.3 |
| 20260510083458 | 10 | 98 | 0.0 | 4.8 | 0.00 | 0.15 | 0.15 | 99 | 1031.3 |
| 20260510082508 | 10 | 105 | 0.0 | 4.8 | 0.00 | 0.15 | 0.15 | 99 | 1031.2 |
| 20260510080409 | 10 | 97 | 1.6 | 8.0 | 0.00 | 0.15 | 0.15 | 99 | 1031.0 |
| 20260510075354 | 10 | 100 | 1.6 | 6.4 | 0.00 | 0.15 | 0.15 | 99 | 1030.9 |
| 20260510074332 | 11 | 91 | 0.0 | 8.0 | 0.08 | 0.18 | 0.15 | 99 | 1030.8 |
| 20260510073336 | 11 | 85 | 1.6 | 8.0 | 0.18 | 0.18 | 0.15 | 99 | 1030.7 |
| 20260510072351 | 11 | 114 | 0.0 | 6.4 | 0.15 | 0.13 | 0.10 | 99 | 1030.7 |
| 20260510071355 | 11 | 116 | 0.0 | 1.6 | 0.00 | 0.10 | 0.08 | 99 | 1030.7 |
| 20260510070353 | 11 | 95 | 0.0 | 9.7 | 0.00 | 0.08 | 0.08 | 99 | 1030.6 |
| 20260510065334 | 11 | 71 | 1.6 | 9.7 | 0.00 | 0.08 | 0.08 | 99 | 1030.6 |
| 20260510064346 | 11 | 96 | 0.0 | 8.0 | 0.00 | 0.08 | 0.08 | 99 | 1030.6 |
| 20260510063402 | 11 | 96 | 1.6 | 9.7 | 0.00 | 0.08 | 0.08 | 98 | 1030.5 |
| 20260510062349 | 11 | 79 | 0.0 | 8.0 | 0.00 | 0.08 | 0.08 | 99 | 1030.6 |
| 20260510061413 | 11 | 76 | 0.0 | 4.8 | 0.08 | 0.08 | 0.08 | 98 | 1030.5 |
| 20260510060430 | 11 | 83 | 0.0 | 6.4 | 0.08 | 0.08 | 0.08 | 99 | 1030.5 |
| 20260510055414 | 11 | 92 | 1.6 | 9.7 | 0.00 | 0.08 | 0.05 | 98 | 1030.4 |
| 20260510053341 | 11 | 174 | 1.6 | 9.7 | 0.00 | 0.05 | 0.03 | 98 | 1030.3 |
| 20260510051401 | 11 | 75 | 0.0 | 1.6 | 0.00 | 0.05 | 0.03 | 98 | 1030.3 |
| 20260510050400 | 11 | 51 | 0.0 | 11.3 | 0.00 | 0.05 | 0.03 | 98 | 1030.4 |
| 20260510045340 | 11 | 307 | 0.0 | 11.3 | 0.00 | 0.05 | 0.03 | 98 | 1030.4 |
| 20260510044327 | 11 | 225 | 0.0 | 6.4 | 0.00 | 0.03 | 0.00 | 98 | 1030.3 |
| 20260510043323 | 11 | 130 | 0.0 | 0.0 | 0.00 | 0.03 | 0.00 | 98 | 1030.3 |
| 20260510042305 | 11 | 53 | 0.0 | 8.0 | 0.00 | 0.03 | 0.00 | 98 | 1030.3 |
| 20260510041301 | 11 | 98 | 1.6 | 8.0 | 0.00 | 0.03 | 0.00 | 98 | 1030.3 |
| 20260510035314 | 11 | 330 | 3.2 | 11.3 | 0.00 | 0.03 | 0.00 | 98 | 1030.5 |
| 20260510034329 | 11 | 100 | 1.6 | 8.0 | 0.00 | 0.03 | 0.00 | 98 | 1030.4 |
| 20260510033344 | 11 | 47 | 0.0 | 9.7 | 0.00 | 0.03 | 0.00 | 98 | 1030.5 |
| 20260510031349 | 11 | 68 | 1.6 | 12.9 | 0.00 | 0.03 | 0.00 | 98 | 1030.7 |
| 20260510030321 | 11 | 105 | 4.8 | 12.9 | 0.00 | 0.03 | 0.00 | 98 | 1030.6 |
| 20260510025258 | 11 | 83 | 1.6 | 11.3 | 0.00 | 0.03 | 0.00 | 98 | 1030.7 |
| 20260510023259 | 11 | 68 | 3.2 | 11.3 | 0.00 | 0.03 | 0.00 | 98 | 1030.9 |
| 20260510022232 | 11 | 86 | 0.0 | 9.7 | 0.00 | 0.03 | 0.00 | 99 | 1031.1 |
| 20260510021215 | 11 | 10 | 0.0 | 1.6 | 0.00 | 0.03 | 0.00 | 99 | 1031.2 |
| 20260510020215 | 11 | 102 | 1.6 | 9.7 | 0.00 | 0.03 | 0.00 | 99 | 1031.3 |
| 20260510014145 | 11 | 89 | 0.0 | 6.4 | 0.00 | 0.03 | 0.00 | 99 | 1031.5 |
| 20260510013122 | 10 | 88 | 0.0 | 3.2 | 0.00 | 0.03 | 0.00 | 99 | 1031.8 |
| 20260510011046 | 10 | 79 | 0.0 | 3.2 | 0.00 | 0.03 | 0.00 | 99 | 1031.8 |
| 20260510010017 | 10 | 119 | 0.0 | 0.0 | 0.00 | 0.03 | 0.00 | 99 | 1031.7 |
| 20260510005017 | 10 | 100 | 0.0 | 3.2 | 0.00 | 0.03 | 0.00 | 99 | 1031.8 |
| 20260510004000 | 10 | 86 | 0.0 | 1.6 | 0.00 | 0.03 | 0.00 | 99 | 1031.7 |
| 20260510003010 | 10 | 124 | 0.0 | 6.4 | 0.00 | 0.03 | 0.00 | 99 | 1031.7 |
| 20260510002034 | 10 | 86 | 0.0 | 1.6 | 0.00 | 0.03 | 0.00 | 99 | 1031.7 |
| 20260509235946 | 10 | 86 | 0.0 | 0.0 | 0.00 | 0.03 | 0.00 | 99 | 1031.8 |
| 20260509234925 | 10 | 48 | 0.0 | 0.0 | 0.00 | 0.03 | 0.00 | 99 | 1031.8 |
| 20260509233857 | 10 | 41 | 0.0 | 0.0 | 0.00 | 0.03 | 0.00 | 99 | 1031.8 |
| 20260509232827 | 10 | 356 | 0.0 | 0.0 | 0.00 | 0.03 | 0.00 | 99 | 1031.7 |
| 20260509231814 | 10 | 98 | 0.0 | 0.0 | 0.00 | 0.03 | 0.00 | 99 | 1031.8 |
| 20260509230754 | 10 | 98 | 0.0 | 0.0 | 0.00 | 0.03 | 0.00 | 99 | 1031.7 |
| 20260509225800 | 10 | 107 | 0.0 | 0.0 | 0.00 | 0.03 | 0.00 | 99 | 1031.7 |
| 20260509224734 | 10 | 17 | 0.0 | 0.0 | 0.00 | 0.03 | 0.00 | 99 | 1031.7 |
| 20260509222556 | 10 | 17 | 0.0 | 0.0 | 0.00 | 0.03 | 0.00 | 99 | 1031.4 |
| 20260509221539 | 10 | 16 | 0.0 | 0.0 | 0.00 | 0.03 | 0.00 | 99 | 1031.4 |
| 20260509220557 | 9 | 61 | 0.0 | 0.0 | 0.00 | 0.03 | 0.00 | 99 | 1031.2 |
| 20260509215539 | 9 | 74 | 0.0 | 0.0 | 0.00 | 0.03 | 0.00 | 99 | 1031.1 |
| 20260509214521 | 9 | 48 | 0.0 | 0.0 | 0.00 | 0.03 | 0.00 | 99 | 1031.0 |
| 20260509213521 | 9 | 70 | 0.0 | 3.2 | 0.00 | 0.03 | 0.00 | 99 | 1030.8 |
| 20260509212526 | 9 | 95 | 0.0 | 6.4 | 0.00 | 0.03 | 0.00 | 99 | 1030.7 |
| 20260509211508 | 9 | 49 | 1.6 | 6.4 | 0.00 | 0.03 | 0.00 | 99 | 1030.6 |
| 20260509210518 | 9 | 68 | 0.0 | 4.8 | 0.00 | 0.03 | 0.00 | 99 | 1030.6 |
| 20260509205514 | 9 | 105 | 0.0 | 3.2 | 0.00 | 0.05 | 0.00 | 99 | 1030.5 |
| 20260509204459 | 9 | 88 | 0.0 | 1.6 | 0.00 | 0.05 | 0.00 | 99 | 1030.3 |
| 20260509203436 | 9 | 263 | 0.0 | 0.0 | 0.00 | 0.05 | 0.00 | 99 | 1030.3 |
| 20260509202444 | 9 | 263 | 0.0 | 0.0 | 0.00 | 0.05 | 0.00 | 99 | 1030.2 |
| 20260509201456 | 9 | 263 | 0.0 | 0.0 | 0.00 | 0.08 | 0.00 | 99 | 1030.0 |
| 20260509200518 | 9 | 263 | 0.0 | 0.0 | 0.00 | 0.08 | 0.00 | 99 | 1029.9 |
| 20260509195449 | 9 | 263 | 0.0 | 0.0 | 0.00 | 0.08 | 0.00 | 99 | 1029.8 |
| 20260509194450 | 8 | 161 | 0.0 | 0.0 | 0.00 | 0.08 | 0.00 | 99 | 1029.8 |
| 20260509193450 | 8 | 161 | 0.0 | 0.0 | 0.00 | 0.08 | 0.00 | 99 | 1029.6 |
| 20260509192428 | 9 | 161 | 0.0 | 0.0 | 0.00 | 0.08 | 0.00 | 99 | 1029.6 |
| 20260509191418 | 9 | 64 | 0.0 | 0.0 | 0.00 | 0.08 | 0.00 | 99 | 1029.4 |